Overview Statistics Trail Chart Weather Telemetry Raw packets
 

This is the latest recevied weather packets stored in our database for station/object KD2FKI. If no packets are shown the sender has not sent any weather packets the latest 10 day(s).

<< 20 21 22 23 24 25 26 >>
Time Temp. Humidity Pressure Rain* Wind** Luminosity Snow
1777890046 9.44° C 67% - 0 mm - - -
1777889436 8.89° C 67% - 0 mm - - -
1777888845 8.89° C 67% - 0 mm - - -
1777888233 8.89° C 67% - 0 mm - - -
1777887639 9.44° C 66% - 0 mm - - -
1777887033 9.44° C 65% - 0 mm - - -
1777886438 9.44° C 65% - 0 mm - - -
1777885845 9.44° C 66% - 0 mm - - -
1777885237 8.89° C 69% - 0 mm - - -
1777884645 8.89° C 69% - 0 mm - - -
1777884032 8.89° C 69% - 0 mm - - -
1777883442 8.89° C 68% - 0 mm - - -
1777882849 8.89° C 71% - 0 mm - - -
1777882237 8.89° C 72% - 0 mm - - -
1777881645 8.89° C 71% - 0 mm - - -
1777881035 8.33° C 71% - 0 mm - - -
1777880443 8.33° C 71% - 0 mm - - -
1777879834 7.78° C 75% - 0 mm - - -
1777879240 7.78° C 77% - 0 mm - - -
1777878630 7.22° C 77% - 0 mm - - -
1777878056 7.22° C 76% - 0 mm - - -
1777877446 6.67° C 76% - 0 mm - - -
1777876835 6.67° C 78% - 0 mm - - -
1777876244 6.67° C 79% - 0 mm - - -
1777875634 6.11° C 79% - 0 mm - - -

* Rain latest hour (hover to see other rain measurements)
** Current wind speed in m/s (hover to see current wind gust speed)